Decorah, Iowa, United States (52101)
Lat: 43.30N, Lon: 91.79W
Wx Zone: IAZ010
Local Info
Past Weather Observations for Today

NOTE: This archive is for the closest National Weather Service station to Decorah. Information may differ from the station used for current weather conditions.

Click here for Long-term Archive

Time Weather Temperature Dewpoint Humidity Pressure Winds Precip Visibility
16:15
Overcast
19°F / -7°C 14°F / -10°C 79% 29.59 in
(1002 mb)
WNW 16.1 mph
(WNW 26 kph)
- 10SM
15:55
Overcast
19°F / -7°C 14°F / -10°C 79% 29.56 in
(1001 mb)
WNW 13.8 mph
(WNW 22 kph)
- 10SM
15:35
Overcast
19°F / -7°C 14°F / -10°C 79% 29.56 in
(1001 mb)
WNW 15 mph
(WNW 24 kph)
- 10SM
15:15
Overcast
21°F / -6°C 16°F / -9°C 80% 29.53 in
(1000 mb)
WNW 9.2 mph
(WNW 15 kph)
- 10SM
14:35
Overcast
21°F / -6°C 16°F / -9°C 80% 29.5 in
(999 mb)
NW 13.8 mph
(NW 22 kph)
- 10SM
14:15
Overcast
21°F / -6°C 16°F / -9°C 80% 29.5 in
(999 mb)
WNW 10.4 mph
(WNW 17 kph)
- 10SM
13:55
Overcast
21°F / -6°C 16°F / -9°C 80% 29.47 in
(998 mb)
WNW 15 mph
(WNW 24 kph)
- 10SM
13:35
Overcast
21°F / -6°C 16°F / -9°C 80% 29.47 in
(998 mb)
W 9.2 mph
(W 15 kph)
- 9SM
13:15
Overcast
21°F / -6°C 18°F / -8°C 86% 29.44 in
(997 mb)
NW 18.4 mph
(NW 30 kph)
- 10SM
12:55
Overcast
23°F / -5°C 18°F / -8°C 80% 29.44 in
(997 mb)
WNW 10.4 mph
(WNW 17 kph)
- 10SM
12:35
Overcast
23°F / -5°C 18°F / -8°C 80% 29.42 in
(996 mb)
WNW 10.4 mph
(WNW 17 kph)
- 9SM
12:15
Overcast
23°F / -5°C 19°F / -7°C 86% 29.42 in
(996 mb)
WNW 16.1 mph
(WNW 26 kph)
- 9SM
11:55
Overcast
23°F / -5°C 19°F / -7°C 86% 29.39 in
(995 mb)
WNW 16.1 mph
(WNW 26 kph)
- 9SM
11:35
Overcast
23°F / -5°C 19°F / -7°C 86% 29.39 in
(995 mb)
WNW 16.1 mph
(WNW 26 kph)
- 9SM
11:15
Overcast
23°F / -5°C 19°F / -7°C 86% 29.39 in
(995 mb)
WNW 15 mph
(WNW 24 kph)
- 10SM
10:55
Overcast
23°F / -5°C 19°F / -7°C 86% 29.36 in
(994 mb)
NW 12.7 mph
(NW 20 kph)
- 10SM
10:35
Overcast
23°F / -5°C 19°F / -7°C 86% 29.36 in
(994 mb)
NW 13.8 mph
(NW 22 kph)
- 10SM
10:15
Overcast
25°F / -4°C 21°F / -6°C 86% 29.36 in
(994 mb)
NW 12.7 mph
(NW 20 kph)
- 7SM
09:55
Overcast
Light Snow
25°F / -4°C 21°F / -6°C 86% 29.36 in
(994 mb)
WNW 13.8 mph
(WNW 22 kph)
0.01 in
(0.25 mm)
2SM
09:35
Mostly Cloudy
Light Snow
25°F / -4°C 21°F / -6°C 86% 29.33 in
(993 mb)
NW 17.3 mph
(NW 28 kph)
- 1 1/2SM
09:15
Mostly Cloudy
Light Snow
25°F / -4°C 23°F / -5°C 93% 29.33 in
(993 mb)
NW 16.1 mph
(NW 26 kph)
- 1 1/4SM
08:55
Overcast
Light Snow
25°F / -4°C 23°F / -5°C 93% 29.3 in
(992 mb)
WNW 16.1 mph
(WNW 26 kph)
- 1 1/2SM
08:35
Overcast
Light Rain
25°F / -4°C 23°F / -5°C 93% 29.3 in
(992 mb)
WNW 10.4 mph
(WNW 17 kph)
- 2 1/2SM
07:55
Overcast
Light Rain
27°F / -3°C 25°F / -4°C 93% 29.27 in
(991 mb)
NW 18.4 mph
(NW 30 kph)
- 2SM
07:35
Overcast
Light Rain
28°F / -2°C 25°F / -4°C 86% 29.27 in
(991 mb)
WNW 11.5 mph
(WNW 19 kph)
- 2 1/2SM
07:15
Overcast
Light Snow
28°F / -2°C 27°F / -3°C 93% 29.27 in
(991 mb)
NW 15 mph
(NW 24 kph)
- 4SM
06:55
Overcast
Light Snow
28°F / -2°C 27°F / -3°C 93% 29.24 in
(990 mb)
NW 16.1 mph
(NW 26 kph)
- 3SM
06:35
Overcast
Light Snow
30°F / -1°C 28°F / -2°C 93% 29.24 in
(990 mb)
NW 15 mph
(NW 24 kph)
- 2 1/2SM
05:55
Overcast
Light Snow
30°F / -1°C 28°F / -2°C 93% 29.24 in
(990 mb)
NW 11.5 mph
(NW 19 kph)
0.01 in
(0.25 mm)
1 1/2SM
05:35
Overcast
Light Snow
30°F / -1°C 30°F / -1°C 100% 29.24 in
(990 mb)
NW 9.2 mph
(NW 15 kph)
- 1SM
05:15
Overcast
Light Snow
30°F / -1°C 30°F / -1°C 100% 29.21 in
(989 mb)
NW 13.8 mph
(NW 22 kph)
- 1SM
04:35
Overcast
Light Snow
30°F / -1°C 30°F / -1°C 100% 29.21 in
(989 mb)
NW 10.4 mph
(NW 17 kph)
- 1SM
04:15
Overcast
Light Snow
32°F / 0°C 30°F / -1°C 93% 29.21 in
(989 mb)
NW 10.4 mph
(NW 17 kph)
- 2 1/2SM
03:55
Overcast
Light Rain
32°F / 0°C 30°F / -1°C 93% 29.21 in
(989 mb)
NW 10.4 mph
(NW 17 kph)
0.01 in
(0.25 mm)
5SM
03:35
Overcast
Light Rain
32°F / 0°C 30°F / -1°C 93% 29.21 in
(989 mb)
NW 18.4 mph
(NW 30 kph)
- 6SM
03:15
Overcast
Light Rain
32°F / 0°C 32°F / 0°C 100% 29.21 in
(989 mb)
NW 15 mph
(NW 24 kph)
- 7SM
02:55
Overcast
Light Rain
34°F / 1°C 32°F / 0°C 93% 29.21 in
(989 mb)
NW 13.8 mph
(NW 22 kph)
0.01 in
(0.25 mm)
7SM
02:35
Overcast
Light Rain
34°F / 1°C 32°F / 0°C 93% 29.21 in
(989 mb)
NW 15 mph
(NW 24 kph)
- 6SM
02:15
Overcast
Light Unknown Precip
34°F / 1°C 32°F / 0°C 93% 29.21 in
(989 mb)
NW 13.8 mph
(NW 22 kph)
- 8SM
01:55
Overcast
Light Unknown Precip
34°F / 1°C 34°F / 1°C 100% 29.21 in
(989 mb)
NW 17.3 mph
(NW 28 kph)
- 7SM
01:35
Overcast
36°F / 2°C 34°F / 1°C 93% 29.21 in
(989 mb)
NW 17.3 mph
(NW 28 kph)
- 10SM
01:15
Overcast
Light Unknown Precip
36°F / 2°C 34°F / 1°C 93% 29.21 in
(989 mb)
NW 17.3 mph
(NW 28 kph)
- 10SM
00:55
Overcast
37°F / 3°C 36°F / 2°C 93% 29.21 in
(989 mb)
NW 16.1 mph
(NW 26 kph)
- 10SM
00:35
Overcast
37°F / 3°C 36°F / 2°C 93% 29.21 in
(989 mb)
NNW 15 mph
(NNW 24 kph)
- 10SM
00:15
Overcast
37°F / 3°C 37°F / 3°C 100% 29.21 in
(989 mb)
NNW 15 mph
(NNW 24 kph)
- 10SM
Time Weather Temperature Dewpoint Humidity Pressure Winds Precip Visibility


Weather for websites

WeatherForYou.com, LLC is not responsible for any damages or problems caused by this service. Current weather conditions are obtained from the closest station including government and personal stations which may have varying degrees of accuracy. Weather forecasts are derived from the NOAA NDFD. Like all things, this site belongs to Jesus Christ... He just trusts me to maintain it. If you have any questions or comments email webmaster@weatherforyou.com

Copyright © 2014, WeatherForYou.com LLC. All rights reserved.